This is the latest recevied weather packets stored in our database for station/object WD7CGF. If no packets are shown the sender has not sent any weather packets the latest 10 day(s).
| Time | Temp. | Humidity | Pressure | Rain* | Wind** | Luminosity | Snow |
|---|---|---|---|---|---|---|---|
| 1787499512 | 18.89° C | 63% | 1016.4 hPa | 0 mm | - | - | - |
| 1787498930 | 18.89° C | 64% | 1016.3 hPa | 0 mm | - | - | - |
| 1787498322 | 18.33° C | 65% | 1016.3 hPa | 0 mm | - | - | - |
| 1787497715 | 18.33° C | 66% | 1016.1 hPa | 0 mm | - | - | - |
| 1787497126 | 17.78° C | 67% | 1016.1 hPa | 0 mm | - | - | - |
| 1787496520 | 17.22° C | 69% | 1016.1 hPa | 0 mm | - | - | - |
| 1787495931 | 16.67° C | 70% | 1016.2 hPa | 0 mm | - | - | - |
| 1787495324 | 16.67° C | 71% | 1016 hPa | 0 mm | - | - | - |
| 1787494721 | 16.11° C | 72% | 1016 hPa | 0 mm | - | - | - |
| 1787494118 | 15.56° C | 73% | 1015.5 hPa | 0 mm | - | - | - |
| 1787493530 | 15.56° C | 74% | 1015.4 hPa | 0 mm | - | - | - |
| 1787492924 | 15.56° C | 73% | 1015.4 hPa | 0 mm | - | - | - |
| 1787492315 | 15° C | 74% | 1015.4 hPa | 0 mm | - | - | - |
| 1787491730 | 15° C | 75% | 1015.4 hPa | 0 mm | - | - | - |
| 1787491122 | 15° C | 75% | 1015.4 hPa | 0 mm | - | - | - |
| 1787490515 | 15° C | 75% | 1015.2 hPa | 0 mm | - | - | - |
| 1787489914 | 15° C | 74% | 1015.2 hPa | 0 mm | - | - | - |
| 1787489325 | 15° C | 74% | 1015.2 hPa | 0 mm | - | - | - |
| 1787488716 | 15° C | 74% | 1015 hPa | 0 mm | - | - | - |
| 1787488129 | 15.56° C | 74% | 1014.7 hPa | 0 mm | - | - | - |
| 1787487520 | 15.56° C | 74% | 1014.7 hPa | 0 mm | - | - | - |
| 1787486911 | 15.56° C | 74% | 1014.7 hPa | 0 mm | - | - | - |
| 1787486327 | 15.56° C | 74% | 1014.6 hPa | 0 mm | - | - | - |
| 1787485721 | 15° C | 75% | 1014.6 hPa | 0 mm | - | - | - |
| 1787485117 | 15° C | 76% | 1014.6 hPa | 0 mm | - | - | - |
* Rain latest hour (hover to see other rain measurements)
** Current wind speed in m/s (hover to see current wind gust speed)